Location: Ottawa
(45.4170°N, 75.7000°W)
Time: 03:50:33
(UTC-04:00)

Iridium 91 - Visible Passes

Search period start: 24 April 2014 00:00
Search period end: 04 May 2014 00:00
Orbit: 775 x 780 km, 86.4° (Epoch: 23 April)

Date Brightness Start Highest point End Pass type
(mag) Time Alt. Az. Time Alt. Az. Time Alt. Az.
24 Apr 7.6 00:27:26 10° NNE 00:30:32 18° ENE 00:30:32 18° ENE visible
24 Apr 6.2 02:07:01 10° N 02:11:00 48° NW 02:11:00 48° NW visible
24 Apr 8.0 23:56:47 10° ENE 23:56:59 10° ENE 23:57:06 10° ENE visible
25 Apr 6.1 01:33:25 10° N 01:37:34 56° NNE 01:37:34 56° NNE visible
25 Apr 7.6 03:16:00 10° NW 03:18:02 14° WNW 03:18:02 14° WNW visible
26 Apr 6.5 01:00:03 10° N 01:04:08 39° NE 01:04:08 39° NE visible
26 Apr 7.0 02:41:19 10° NNW 02:44:37 24° WNW 02:44:37 24° WNW visible
27 Apr 7.2 00:27:00 10° NNE 00:30:43 24° ENE 00:30:43 24° ENE visible
27 Apr 6.4 02:07:15 10° NNW 02:11:11 39° WNW 02:11:11 39° WNW visible
27 Apr 7.7 23:54:32 10° NE 23:57:18 15° ENE 23:57:18 15° ENE visible
28 Apr 5.9 01:33:31 10° N 01:37:46 59° NNW 01:37:46 59° NNW visible
29 Apr 6.1 01:00:00 10° N 01:04:21 53° NE 01:04:21 53° NE visible
29 Apr 7.4 02:41:57 10° NW 02:44:49 18° WNW 02:44:49 18° WNW visible
30 Apr 6.7 00:26:44 10° NNE 00:30:56 33° ENE 00:30:56 33° ENE visible
30 Apr 6.8 02:07:36 10° NNW 02:11:24 30° WNW 02:11:24 30° WNW visible
30 Apr 7.3 23:53:51 10° NNE 23:57:31 20° ENE 23:57:31 20° ENE visible
01 May 6.1 01:33:41 10° NNW 01:37:59 49° NW 01:37:59 49° NW visible
01 May 7.8 23:22:00 10° NE 23:23:43 12° ENE 23:24:07 11° ENE visible
02 May 5.7 01:00:01 10° N 01:04:35 68° N 01:04:35 68° N visible
02 May 7.7 02:43:02 10° NW 02:45:03 13° WNW 02:45:03 13° WNW visible
03 May 6.2 00:26:36 10° N 00:31:11 47° ENE 00:31:11 47° ENE visible
03 May 7.2 02:08:05 10° NNW 02:11:39 22° WNW 02:11:39 22° WNW visible
03 May 6.8 23:53:28 10° NNE 23:57:47 28° ENE 23:57:47 28° ENE visible
